星链-32036 (STARLINK-32036)

导读 | 星芒AI

STARLINK-32036 是 SpaceX Starlink 卫星互联网项目中的一颗低轨卫星,属于该系列的第 32036 颗发射入轨的卫星。它运行在约 550 公里的高度,旨在为全球用户提供高速、低延迟的互联网服务。该卫星采用可重复使用的设计,配备先进通信设备,支持 Ku 和 Ka 频段传输。作为 Starlink 计划的一部分,它有助于扩展网络覆盖范围,特别是在偏远和网络基础设施薄弱的地区。

基本信息
目录编号:
60141
目录名称:
STARLINK-32036
国际标识:
2024-120G
轨道中心:
EARTH
卫星名称:
星链-32036
卫星全名:
星链-32036 (STARLINK-32036)
卫星状态:
在轨 (已飞行494 天)
发射日期:
2024-06-27 UTC
国别 :
美国 (US)
星等 :
--
轨道信息
数据来源 国际轨道数据 AOE轨道数据
星历时间 2025-11-02T17:31:11+0800
19小时前
查看轨道信息
2025-10-28T10:00:00+0800
6天前
查看轨道信息
半长轴 6853.373km 6853.368km
偏心率 0.0001036 0.0001215
轨道倾角 53.160° 53.159°
近地点辐角 96.724° 65.148°
升交点赤经 191.432° 216.113°
平近点角 263.388° 169.122°
近地点 474.527km 474.4km
远地点 475.949km 476.066km
周期 94.106分钟 94.106分钟
每日圈数 15.301932 15.301948
详细信息
固有亮度:
5
最大亮度:
2.5
卫星平台:
Starlink V1.0
覆盖范围:
全球
运营商:
太空探索技术公司
运营商所在国:
美国
制造商(研发单位):
太空探索技术公司
制造商所在国:
美国
使用方式:
暂无
卫星简介
Starlink 计划是 SpaceX 推出的全球卫星互联网项目,通过发射低轨道卫星,为全球尤其是偏远地区提供高速、低延迟的互联网服务。自 2019 年起,Starlink 已部署数千颗卫星,旨在缩小全球数字鸿沟,推动互联网普及。该项目还为军事、航空等行业提供通信支持,带来广泛经济效益。
2D轨道图
3D轨道图
轨道高度分析图
轨道倾角分析图
轨道综合分析图
查看轨道综合分析图